Presure
180 188 205 204 214 210 203 191 193 195 195 186 189 185 189 185 188 191 186 182 179 180 178 178 190 181 178 178 179 178 183 188 172 172 188 190 194 191 191 199 196 203 207 211 218
173 174 181 185 193 196 184 195 195 194 191 182 190 190 189 188 186 181 180 181 174 182 186 173 180 176 169 168 180 173 177 186 179 173 185 178 171 172 169 184 185 193 192 197 198
163 172 175 182 179 183 187 187 187 191 191 186 183 181 176 175 177 178 171 182 187 183 163 171 173 177 162 180 173 169 175 186 175 178 183 177 173 186 181 182 181 176 177 166 176
173 168 166 171 178 179 177 175 172 177 176 177 179 177 183 183 181 177 173 171 175 177 172 175 163 160 160 165 172 176 180 171 171 178 183 179 176 170 173 175 177 175 169 177 175
159 172 169 165 169 167 177 174 175 174 173 176 180 182 174 176 178 179 172 169 171 162 170 168 170 180 184 165 175 180 178 167 178 173 172 185 184 158 163 168 179 176 178 178 174
180 159 171 167 168 165 175 178 174 174 174 175 170 166 177 165 162 167 182 179 177 184 178 178 179 183 184 187 185 187 177 182 161 176 181 179 179 182 179 164 168 177 165 168 179
174 179 157 171 169 171 167 163 163 177 179 180 179 172 157 160 167 178 161 166 178 176 172 177 201 195 181 189 196 188 189 193 191 190 176 177 179 178 182 178 175 171 174 179 175
191 183 180 159 173 171 171 171 163 166 167 172 163 171 177 167 171 174 181 180 172 193 178 192 189 178 236 221 225 193 237 255 197 184 190 179 177 176 178 179 181 184 182 184 173
214 191 184 178 176 175 173 172 171 167 158 169 177 176 175 172 173 175 174 176 176 186 161 180 202 230 211 206 211 215 215 216 215 258 225 192 191 169 179 177 171 173 176 175 179
208 202 195 183 174 178 175 177 168 168 171 160 165 175 168 165 175 171 165 188 180 184 180 199 227 208 199 210 211 222 322 218 224 233 244 276 207 192 192 177 178 179 179 182 172
177 220 210 196 184 171 179 179 175 176 173 170 168 163 169 178 167 170 179 161 176 185 178 200 231 196 205 210 207 293 310 317 330 243 220 245 270 205 181 190 191 194 176 172 182
291 217 209 193 193 185 177 180 181 174 172 176 172 159 166 177 161 175 179 171 174 186 180 201 222 198 208 201 212 275 293 306 317 328 331 217 253 269 207 187 186 185 187 188 180
361 224 217 213 194 190 193 174 183 181 179 176 164 161 171 177 162 160 181 178 170 165 181 189 217 193 202 202 209 256 272 289 305 209 329 327 210 253 273 236 203 198 194 190 190
377 312 248 223 206 197 197 194 167 184 184 177 169 160 177 176 160 167 177 181 176 173 189 191 211 188 203 205 204 233 239 261 281 303 203 328 325 215 251 270 269 232 244 254 255
370 336 277 233 204 204 199 189 196 172 185 180 181 176 176 185 162 174 179 177 176 176 190 194 205 188 207 202 199 196 233 229 240 259 225 207 319 279 208 211 207 145 208 208 228
382 329 309 250 216 218 201 196 193 190 192 178 173 178 171 176 187 178 177 187 163 180 172 191 199 194 193 202 202 196 198 224 208 213 227 246 277 298 264 206 182 165 201 175 159
372 337 300 273 226 215 221 198 200 200 175 173 190 190 182 189 182 174 170 190 162 183 181 179 192 201 189 195 201 197 200 197 207 211 198 197 198 209 204 210 208 160 139 148 152
321 341 305 268 232 220 208 222 202 198 197 185 182 184 182 183 173 178 188 187 167 177 189 185 192 200 194 189 196 200 198 196 202 199 197 205 213 209 208 204 131 204 152 203 126
352 328 305 278 236 227 210 226 175 179 187 193 194 187 193 187 192 190 190 184 179 181 184 184 189 195 202 199 188 196 203 200 194 200 205 170 188 129 136 189 137 205 180 132 192
353 342 304 286 238 227 221 228 223 208 192 193 194 183 181 178 190 189 183 175 186 188 199 180 185 184 199 201 196 190 196 194 200 202 203 197 203 164 167 206 205 204 143 199 169
353 343 308 288 241 234 233 223 223 221 192 197 193 194 192 191 177 180 162 194 183 196 199 189 187 184 195 199 200 199 199 196 196 198 194 197 201 203 200 120 175 201 167 135 138
387 381 344 300 263 200 238 230 230 218 218 204 206 194 190 195 196 182 181 184 166 202 195 183 192 179 191 199 199 197 197 201 195 200 193 195 195 199 198 196 88 196 175 204 163
393 318 313 322 289 255 239 234 228 230 219 200 213 203 200 172 182 181 166 172 178 191 190 195 184 187 181 193 196 195 200 197 201 200 194 190 162 192 197 216 155 143 153 200 156
337 342 321 317 317 279 255 239 229 226 222 217 215 212 210 196 196 193 192 191 174 186 180 197 205 189 194 183 194 192 202 195 200 197 202 200 197 148 207 165 199 154 151 140 147
359 362 322 306 293 306 275 258 233 227 229 212 206 216 209 215 204 196 179 206 168 186 197 185 191 182 187 186 193 193 196 197 194 193 208 209 88 217 202 201 166 137 142 173 149
360 388 324 305 314 319 170 283 241 230 233 226 214 213 208 217 210 213 198 192 204 179 187 180 195 191 186 202 183 188 190 194 190 212 214 199 203 150 219 221 143 142 141 189 219
360 359 320 293 295 317 312 288 259 226 229 231 221 217 215 214 218 214 218 215 204 204 178 196 197 181 184 186 199 204 210 200 191 197 211 217 177 201 196 195 159 137 212 219 213
Wind_Speed
26 21 16 17 18 20 22 29 30 30 31 35 34 35 33 34 32 29 31 31 32 32 34 33 35 35 35 36 36 35 36 38 37 40 36 38 36 37 37 38 40 38 38 42 40
28 30 27 24 21 22 26 28 30 32 34 37 34 33 31 31 32 33 32 32 32 34 35 33 34 35 36 35 37 35 38 39 42 39 41 41 41 41 41 39 40 39 43 41 42
35 32 33 30 31 28 28 30 31 31 31 32 33 34 36 34 33 32 32 34 35 35 35 35 35 36 38 38 38 38 37 44 39 43 43 44 45 43 42 42 41 43 46 51 48
41 39 36 36 36 36 35 37 36 36 38 37 36 37 36 35 33 32 32 32 34 36 36 38 38 41 42 40 39 42 45 41 40 42 45 46 46 45 43 44 44 45 49 48 50
47 46 44 42 40 41 42 42 41 41 40 39 38 38 37 34 34 33 34 34 36 40 37 37 38 44 48 46 45 45 44 46 46 43 42 47 50 51 47 45 46 48 48 49 51
56 52 51 49 47 45 47 47 45 43 42 42 39 36 37 34 36 34 37 37 38 40 41 41 42 45 47 50 51 52 46 46 52 46 45 44 44 50 50 48 46 49 52 53 54
64 63 56 56 54 53 50 49 46 46 46 45 43 41 41 38 38 38 41 40 39 39 40 40 43 44 47 50 53 52 51 53 53 51 49 48 46 46 48 49 49 50 51 52 52
75 72 69 60 61 59 57 55 50 49 46 47 43 44 44 41 39 38 38 38 39 38 38 37 39 46 43 47 50 48 56 61 54 50 51 50 48 47 49 49 50 53 51 52 50
75 81 77 72 68 65 63 60 57 54 50 48 49 47 44 41 39 38 39 39 36 35 43 39 40 39 40 43 46 47 50 50 53 65 61 53 52 47 49 50 50 49 48 48 50
86 83 86 80 72 70 66 66 59 57 56 54 48 47 46 44 39 39 41 40 36 35 36 40 37 37 38 39 40 41 28 47 49 51 57 70 58 52 54 53 52 50 50 52 52
63 91 94 91 81 70 71 71 66 64 62 56 51 50 47 46 42 42 41 45 34 35 34 39 34 36 35 37 37 28 26 24 26 48 49 54 64 57 52 55 53 55 52 52 54
96 94 100 89 91 80 73 73 74 67 63 62 56 55 51 47 47 44 43 41 37 35 33 39 32 34 33 34 34 26 24 22 22 25 31 46 52 58 57 53 53 53 54 57 55
77 81 90 101 91 88 88 71 78 74 69 64 58 57 52 50 49 47 46 39 39 40 34 37 31 33 31 30 31 24 20 19 18 36 24 30 44 48 50 57 56 55 56 58 61
68 81 101 107 98 98 90 91 70 78 75 68 61 58 59 53 51 49 45 43 39 38 38 38 32 34 31 29 28 23 21 16 14 15 36 23 26 43 42 42 48 57 60 56 55
69 83 105 108 101 100 94 86 93 72 74 71 68 64 58 59 56 48 47 45 41 40 39 37 33 35 31 29 27 27 19 18 15 11 26 32 18 38 42 44 48 33 53 56 53
67 83 87 105 108 105 101 94 92 85 81 71 65 66 58 57 60 52 48 49 47 41 39 38 34 35 34 31 29 28 28 20 26 25 18 14 12 18 34 43 40 37 52 44 36
64 80 88 96 113 109 107 97 98 90 67 67 82 78 65 69 57 53 50 54 49 44 40 39 38 35 37 33 31 30 29 30 28 27 31 33 33 32 34 40 43 36 35 34 36
76 77 87 102 117 112 109 111 92 89 91 82 78 74 67 66 55 55 58 55 51 44 44 42 40 37 39 38 35 32 32 33 32 31 33 32 33 35 38 41 35 49 34 55 28
76 83 89 100 118 116 102 113 69 73 78 90 91 78 77 69 70 63 61 54 49 48 45 44 44 41 38 39 40 36 33 35 37 36 35 34 36 34 28 41 38 50 51 27 55
73 80 89 98 120 120 115 108 104 101 89 90 90 76 68 64 68 66 56 53 54 51 50 47 47 47 42 41 41 40 38 38 37 40 40 43 42 41 40 44 48 54 31 55 45
72 82 87 101 126 126 118 105 107 105 85 96 90 86 81 78 66 61 62 66 59 57 51 49 48 50 47 45 44 43 42 42 42 42 45 48 49 47 47 39 45 59 43 35 34
67 74 80 102 121 86 119 110 108 107 108 102 102 88 78 82 79 64 60 59 61 63 53 50 49 53 51 49 49 47 47 46 46 46 48 48 58 54 51 53 22 60 51 65 48
67 77 86 95 107 126 114 115 108 109 108 92 104 98 92 75 71 69 68 67 62 60 55 54 53 53 53 52 53 52 51 49 48 51 54 54 42 58 57 59 42 39 44 66 46
74 80 91 93 98 110 126 115 111 110 110 105 102 102 100 85 81 76 73 72 62 62 62 59 57 56 55 55 57 56 55 54 53 55 53 63 59 38 61 51 65 39 41 39 40
73 82 89 92 83 102 111 119 114 110 114 103 92 101 101 99 96 79 76 86 65 66 66 61 61 61 58 58 60 60 60 58 58 57 55 63 29 66 65 65 49 39 41 57 43
72 74 85 88 89 87 50 104 117 112 115 106 100 101 96 101 101 100 81 72 75 67 65 67 66 65 61 61 60 61 65 63 60 62 58 64 68 40 70 71 41 42 43 65 81
70 78 91 89 89 88 87 97 112 109 111 108 108 106 101 100 102 98 96 95 80 77 70 70 71 67 62 67 62 60 73 67 64 66 66 66 51 68 65 66 49 41 74 81 79
Wind_Direction
276 267 259 248 224 221 228 236 235 230 228 234 234 237 235 240 238 238 242 243 245 245 244 245 249 251 248 248 247 247 246 246 242 242 239 239 236 236 232 227 231 234 234 234 235
266 268 260 251 237 229 233 222 223 225 229 240 232 233 233 235 237 242 246 248 251 255 253 245 250 249 247 245 254 244 249 250 245 245 240 239 240 239 236 234 233 233 237 237 238
248 256 259 253 247 237 231 229 232 231 230 233 236 237 240 243 244 247 247 253 253 255 242 251 255 258 240 256 252 246 250 250 247 248 247 244 243 239 240 239 235 233 237 241 240
253 247 246 251 250 244 239 238 238 237 241 242 241 243 244 245 246 248 251 250 257 255 254 257 238 237 236 243 254 255 254 246 243 246 246 247 243 243 242 241 240 239 239 239 240
247 248 246 241 244 249 243 241 238 237 240 243 244 244 246 247 249 251 250 251 254 245 252 251 256 264 262 245 254 257 249 240 252 242 238 245 243 234 237 244 245 244 243 242 245
244 244 243 244 239 239 246 242 241 240 241 241 240 239 246 243 244 248 256 256 255 258 256 259 259 258 258 258 255 253 248 250 240 247 250 245 243 244 242 239 243 247 243 246 247
245 242 241 239 240 238 236 239 241 244 243 242 243 241 237 240 247 255 246 249 256 254 254 256 270 265 257 260 259 256 254 253 254 250 242 242 244 241 246 244 243 241 245 248 246
235 236 239 238 236 238 237 237 237 240 239 242 235 241 245 244 248 253 259 256 251 272 254 270 265 261 270 265 264 259 261 255 251 250 247 242 241 243 245 246 249 251 251 252 246
238 231 232 236 234 235 237 236 237 236 234 240 245 243 245 245 248 253 251 253 253 267 250 265 276 278 267 264 265 264 263 258 254 248 247 247 245 244 245 245 244 246 248 249 251
231 235 229 230 234 233 235 236 233 235 238 238 237 245 241 239 250 249 241 269 262 269 265 278 286 273 267 270 267 269 293 259 254 251 246 241 245 247 247 246 247 249 249 251 250
246 227 225 229 230 233 232 235 235 236 238 236 235 235 243 250 239 247 257 241 256 270 263 280 289 270 274 277 272 304 301 293 277 249 248 243 242 244 244 249 251 252 250 252 256
233 224 228 231 230 228 230 232 235 233 233 238 235 233 237 250 239 250 255 246 256 272 266 280 288 273 278 274 281 309 312 300 286 268 258 245 242 244 243 247 249 252 255 256 257
234 235 229 222 228 231 226 229 234 234 235 235 235 231 237 244 238 242 256 254 248 251 267 275 286 269 275 275 280 309 316 312 296 253 264 253 244 243 245 246 249 252 254 256 257
228 231 221 220 224 227 224 228 232 233 233 235 233 233 240 240 236 241 251 256 252 255 271 272 282 266 277 276 276 299 299 316 322 295 251 262 249 243 245 245 247 251 256 258 260
223 228 222 218 225 226 226 227 230 235 231 234 237 237 238 244 236 241 248 250 252 256 267 270 276 265 279 274 269 266 296 285 293 311 258 251 255 241 247 246 249 247 256 258 260
226 224 220 218 221 221 226 225 228 229 230 232 233 236 234 237 245 242 244 252 242 255 251 266 270 265 266 271 270 264 262 279 262 260 260 266 269 254 247 252 250 254 261 259 260
227 220 219 217 218 221 220 229 225 227 224 228 235 237 237 242 240 239 238 251 241 253 254 256 263 265 260 265 266 264 266 262 264 262 256 256 254 253 249 251 254 249 248 264 270
226 217 217 216 216 221 226 221 226 224 228 230 233 235 234 237 232 239 246 247 240 245 255 256 261 263 258 258 262 263 263 262 264 258 259 259 259 257 258 258 241 260 257 265 246
224 220 215 215 215 219 230 223 225 228 226 230 232 234 236 236 240 241 244 244 238 244 249 252 257 259 261 258 256 259 264 264 264 267 265 250 256 241 262 262 249 267 265 259 271
222 219 214 214 215 220 224 220 221 224 229 229 231 229 228 227 238 239 236 235 244 245 248 247 254 254 258 259 258 258 260 261 266 270 270 267 266 258 260 266 267 268 260 274 274
221 217 210 215 215 219 222 223 220 220 229 230 232 232 233 235 227 229 237 243 240 249 247 246 250 253 259 259 259 259 259 259 260 263 268 271 272 271 271 256 270 271 274 262 271
224 218 206 217 215 220 222 220 221 222 222 229 229 232 230 234 237 230 231 236 236 247 246 242 248 249 257 260 261 260 259 263 262 266 263 267 271 272 273 273 268 276 276 280 279
225 215 212 216 216 218 222 222 224 223 225 233 227 233 235 231 229 229 235 233 233 243 244 244 244 250 251 259 260 261 263 262 266 266 265 264 261 272 275 280 266 263 271 282 277
217 214 209 216 217 217 220 221 223 226 225 227 229 230 233 236 238 236 236 238 238 237 235 248 252 248 253 253 260 260 265 263 268 267 275 270 271 278 278 267 276 273 273 267 276
215 215 209 217 218 218 221 219 221 225 226 227 230 231 235 235 239 238 237 242 241 237 244 241 244 243 248 253 258 261 264 264 265 265 275 275 239 279 274 277 277 273 273 284 285
217 219 206 213 217 218 222 218 221 225 227 229 229 231 236 235 239 239 238 236 243 236 240 239 249 246 246 255 253 260 262 264 264 277 278 272 274 266 282 284 269 275 279 288 292
218 212 207 216 218 217 218 216 217 223 225 228 228 230 232 235 238 242 243 244 245 245 239 247 250 247 248 251 253 262 266 263 266 271 277 282 274 278 281 282 276 276 292 292 294